Regional Weather Roundup
Issued by NWS

Home | Current Version | Previous Version | Graphics & Text | Print | Product List | Glossary Off
Versions: 1 2 3 4 5 6 7 8 9 10 11 12 13 14 15 16 17 18 19 20 21 22 23 24 25 26 27 28 29 30 31 32 33 34 35 36 37 38 39 40 41 42 43 44 45 46 47 48 49 50

000
ASUS43 KLSX 291359
RWRMO

WEATHER SUMMARY FOR MISSOURI
NATIONAL WEATHER SERVICE SPRINGFIELD MO
900 AM CDT WED MAR 29 2017

NOTE: "FAIR" INDICATES FEW OR NO CLOUDS BELOW 12,000 FEET WITH NO
       SIGNIFICANT WEATHER AND/OR OBSTRUCTIONS TO VISIBILITY.
       CURRENT SKY AND/OR WEATHER CONDITIONS ARE NOT AVAILABLE FOR
       CHILLICOTHE AND FARMINGTON.

MOZ001>031-035>038-043-044-053-054-291500-
...NORTHERN AND WESTERN MISSOURI...

CITY           SKY/WX    TMP DP  RH WIND       PRES   REMARKS
KANSAS CTY INT DRIZZLE   49  47  93 E21G31    29.85F FOG
KANSAS C DTWN  CLOUDY    50  48  93 E20G29    29.85F
LEE`S SUMMIT   CLOUDY    49  48  97 E18G29    29.85F
ST JOSEPH      CLOUDY    49  47  93 E20G30    29.87F
CHILLICOTHE      N/A     48  46  93 E9G20     29.96F
KIRKSVILLE     LGT RAIN  43  43 100 E15G24    30.03R FOG

$$
MOZ066>068-077>081-088>096-101>105-291500-
...SOUTHWEST MISSOURI...

CITY           SKY/WX    TMP DP  RH WIND       PRES   REMARKS
SPRINGFIELD    PTSUNNY   57  52  83 SE23G38   29.81F
JOPLIN         RAIN      57  55  93 SE18G25   29.75R FOG
BRANSON        CLOUDY    55  54  94 SE12G21   29.85S

$$
MOZ032>034-039>042-045>050-055>058-069>072-291500-
...CENTRAL MISSOURI...

CITY           SKY/WX    TMP DP  RH WIND       PRES   REMARKS
COLUMBIA       CLOUDY    49  48  97 NE14      30.00R FOG
JEFFERSON CITY CLOUDY    54  49  83 NE10      29.99F
ROLLA          CLOUDY    52  50  93 SE9       29.96R
SEDALIA        CLOUDY    52  51  97 E16G28    29.90F
WHITEMAN AFB   CLOUDY    50  50 100 E13G22    29.88F
WARRENSBURG    CLOUDY    48  46  93 E16G23    29.88S
OSAGE BEACH    CLOUDY    54  51  90 E12G18    29.90F

$$
MOZ051-052-059>065-291500-
...EAST CENTRAL MISSOURI...

CITY           SKY/WX    TMP DP  RH WIND       PRES   REMARKS
ST LOUIS INTL  CLOUDY    51  44  77 E13       30.04R
SPIRIT OF STL  CLOUDY    51  46  83 E7        30.03S
ST CHARLES     CLOUDY    49  46  90 E14       30.05R

$$
MOZ072>076-082>087-097>100-106>115-291500-
...SOUTH CENTRAL AND SOUTHEAST MISSOURI...

CITY           SKY/WX    TMP DP  RH WIND       PRES   REMARKS
CAPE GIRARDEAU CLOUDY    56  51  84 E9        30.01R
FARMINGTON     LGT RAIN  53  51  93 E9        30.02R
POPLAR BLUFF   LGT RAIN  57  53  86 E10       29.98R
WEST PLAINS    CLOUDY    56  52  86 E13       29.93F

$$



USA.gov is the U.S. government's official web portal to all federal, state and local government web resources and services.